Retour au catalogue

STARLINK-30083

ActifCommunicationsVLEO
NORAD 56295·PAYLOAD·🇺🇸 United States

Lancé Apr 19, 2023 depuis Cape Canaveral Space Force Station

Loading…

Prochains Passages (prochaines 24 heures)

TLE

FraisSource: CelesTrak SupGP

Époque: Sep 15, 2026, 02:29 UTC

1 56295C 23056K   26258.10395833 -.00040706  00000+0 -14746-2 0  2588
2 56295  43.0027 194.0056 0001380 272.0783 216.9936 15.27593284    14

Suivez STARLINK-30083 en temps réel avec AllMySat

Download on the App Store